Regional Weather Roundup
Issued by NWS

Home | Current Version | Previous Version | Text Only | Print | Product List | Glossary On
Versions: 1 2 3 4 5 6 7 8 9 10 11 12 13 14 15 16 17 18 19 20 21 22 23 24 25 26 27 28 29 30 31 32 33 34 35 36 37 38 39 40 41 42 43 44 45 46 47 48 49 50
000
ASUS43 KOAX 280002
RWRNE

WEATHER ROUNDUP FOR NEBRASKA
NATIONAL WEATHER SERVICE OMAHA NE
700 PM CDT TUE SEP 27 2016

NOTES: SATELLITE DATA IS BEING USED TO AUGMENT CLOUD COVER ABOVE
       12000 FEET.
       "FAIR" INDICATES FEW OR NO CLOUDS BELOW 12,000 FEET WITH NO
       SIGNIFICANT WEATHER AND/OR OBSTRUCTIONS TO VISIBILITY.

  * THESE STATIONS DO NOT REPORT WEATHER SUCH AS RAIN...SNOW OR FOG.

NEZ001>004-019>022-054>056-280100-
NEBRASKA PANHANDLE

CITY           SKY/WX    TMP DP  RH WIND       PRES   REMARKS
SCOTTSBLUFF    CLEAR     81  37  20 SW5       30.04R
6HR MIN TEMP:  73; 6HR MAX TEMP:  84;

ALLIANCE       CLEAR     79  37  22 N9        30.03R
6HR MIN TEMP:  77; 6HR MAX TEMP:  85;

CHADRON        CLEAR     81  36  19 W14       29.99S
6HR MIN TEMP:  76; 6HR MAX TEMP:  86;

KIMBALL        CLEAR     76  41  28 NE7       30.11S
SIDNEY         CLEAR     79  33  19 N7        30.09R
6HR MIN TEMP:  77; 6HR MAX TEMP:  85;

$$

NEZ057>060-069>072-079>082-280100-
SOUTHWEST NEBRASKA

CITY           SKY/WX    TMP DP  RH WIND       PRES   REMARKS
NORTH PLATTE   CLEAR     77  44  30 NW7       29.95S
6HR MIN TEMP:  77; 6HR MAX TEMP:  87;

IMPERIAL       CLEAR     82  32  16 NW5       30.00S
6HR MIN TEMP:  77; 6HR MAX TEMP:  86;

LEXINGTON      CLEAR     78  46  31 W7        29.92S
MCCOOK         CLEAR     81  42  25 W7        29.95F
6HR MIN TEMP:  75; 6HR MAX TEMP:  86;

OGALLALA       CLEAR     82  35  18 NW6       30.00R
$$

NEZ005>010-023>029-035>040-094-280100-
NORTH CENTRAL NEBRASKA

CITY           SKY/WX    TMP DP  RH WIND       PRES   REMARKS
VALENTINE      CLEAR     79  39  23 NW9       29.94S
6HR MIN TEMP:  77; 6HR MAX TEMP:  84;

AINSWORTH      CLEAR     76  43  31 NW9       29.94S
BROKEN BOW     CLEAR     80  43  26 N10       29.92S
6HR MIN TEMP:  77; 6HR MAX TEMP:  86;

O`NEILL        CLEAR     73  42  31 N7        29.91R
ORD            CLEAR     77  42  28 NW9       29.89R
6HR MIN TEMP:  75; 6HR MAX TEMP:  83;

THEDFORD       CLEAR     79  44  29 NW7       29.97S
$$

NEZ041-046>049-061>064-073>077-083>087-280100-
SOUTH CENTRAL NEBRASKA

CITY           SKY/WX    TMP DP  RH WIND       PRES   REMARKS
GRAND ISLAND   CLEAR     80  47  31 CALM      29.88F
6HR MIN TEMP:  76; 6HR MAX TEMP:  83;

AURORA         CLEAR     77  47  34 CALM      29.88F
HASTINGS       CLEAR     79  47  32 SW3       29.90F
6HR MIN TEMP:  76; 6HR MAX TEMP:  85;

HEBRON         CLEAR     76  49  38 SW5       29.89S
HOLDREGE       CLEAR     79  43  28 W3        29.92S
KEARNEY *      CLEAR     82  45  26 W7        29.89S
YORK           CLEAR     75  48  38 CALM      29.87F
$$

NEZ011>018-030>034-042>045-280100-
NORTHEAST NEBRASKA

CITY           SKY/WX    TMP DP  RH WIND       PRES   REMARKS
NORFOLK        CLEAR     71  46  40 N6        29.87F
6HR MIN TEMP:  71; 6HR MAX TEMP:  79;

ALBION         CLEAR     74  47  37 N5        29.89R
BLAIR          CLEAR     73  46  38 NW3       29.86F
FREMONT        CLEAR     72  47  40 CALM      29.87S
TEKAMAH        CLEAR     70  48  45 NW6       29.85F
6HR MIN TEMP:  70; 6HR MAX TEMP:  79;

WAYNE          CLEAR     69  48  46 CALM      29.87F
$$

NEZ050>053-065>068-078-088>093-280100-
SOUTHEAST NEBRASKA

CITY           SKY/WX    TMP DP  RH WIND       PRES   REMARKS
LINCOLN        CLEAR     78  48  34 W3        29.87F
6HR MIN TEMP:  76; 6HR MAX TEMP:  82;

OMAHA EPPLEY   PTCLDY    73  48  41 NW5       29.85F
6HR MIN TEMP:  72; 6HR MAX TEMP:  80;

BEATRICE       CLEAR     73  52  49 NW5       29.87F
FALLS CITY     CLEAR     74  50  42 N3        29.86S
6HR MIN TEMP:  74; 6HR MAX TEMP:  78;

NEBRASKA CITY  CLEAR     73  31  20 CALM      29.87S
PLATTSMOUTH    CLEAR     73  39  29 N3        29.87S
$$

NEZ044-045-051>053-067-280100-
OMAHA AREA

CITY           SKY/WX    TMP DP  RH WIND       PRES   REMARKS
OMAHA EPPLEY   PTCLDY    73  48  41 NW5       29.85F
6HR MIN TEMP:  72; 6HR MAX TEMP:  80;

BLAIR          CLEAR     73  46  38 NW3       29.86F
FREMONT        CLEAR     72  47  40 CALM      29.87S
MILLARD        CLEAR     74  47  37 CALM      29.86S
OFFUTT AFB     CLEAR     69  51  52 NW2       29.85S
PLATTSMOUTH    CLEAR     73  39  29 N3        29.87S
WAHOO          FAIR      73  44  34 N5        29.86F HAZE
$$



USA.gov is the U.S. government's official web portal to all federal, state and local government web resources and services.